Indianapolis, IN

12:00 AM EDT on March 27, 2017 (GMT -0400)
Indianapolis International

Weather History for KIND - December, 2012

Change the Weather History Date:

Tuesday, December 4, 2012

  Actual Average Record
Temperature  
Mean Temperature 52 °F 35 °F  
Max Temperature 64 °F 43 °F 70 °F (1998)
Min Temperature 39 °F 28 °F 5 °F (1991)
Degree Days  
Heating Degree Days 13 30  
Month to date heating degree days 35 116  
Since 1 July heating degree days 1198 1158  
Cooling Degree Days 0 0  
Month to date cooling degree days 0 0  
Year to date cooling degree days 1534 1066  
Growing Degree Days 1 (Base 50)    
Moisture  
Dew Point 49 °F    
Average Humidity 82    
Maximum Humidity 100    
Minimum Humidity 63    
Precipitation  
Precipitation 0.14 in 0.10 in 0.98 in (1922)
Month to date precipitation 0.42 0.41  
Year to date precipitation 35.84 39.68  
Snow  
Snow 0.00 in 0.20 in 3.50 in (1908)
Month to date snowfall 0.0 0.5  
Since 1 July snowfall 0.2 1.6  
Snow Depth 0.00 in    
Sea Level Pressure  
Sea Level Pressure 30.07 in    
Wind  
Wind Speed 10 mph (WNW)    
Max Wind Speed 22 mph    
Max Gust Speed 28 mph    
Visibility 7 miles    
Events Rain    
T = Trace of Precipitation, MM = Missing Value Source: NWS Daily Summary

Daily Weather History Graph

Daily Weather History Graph

Search for Another Location

Airport or City:

Trip Planner

Search our weather history database for the weather conditions in past years. The results will help you decide how hot, cold, wet, or windy it might be!

Date:

Astronomy

Dec. 04, 2012 Rise Set
Actual Time 7:50 AM EST 5:20 PM EST
Civil Twilight 7:20 AM EST 5:50 PM EST
Nautical Twilight 6:46 AM EST 6:24 PM EST
Astronomical Twilight 6:14 AM EST 6:56 PM EST
Moon 11:06 PM EST (12/4) 11:44 AM EST (12/4)
Length of Visible Light 10h 30m
Length of Day
9h 30m
Waning Gibbous, 69% of the Moon is Illuminated
Dec 4
Waning Gibbous
Dec 6
Last Quarter
Dec 13
New
Dec 20
First Quarter
Dec 28
Full

Hourly Weather History & Observations

Time (EST) Temp. Windchill Dew Point Humidity Pressure Visibility Wind Dir Wind Speed Gust Speed Precip Events Conditions
12:54 AM 61.0 °F - 51.1 °F 70% 30.01 in 10.0 mi South 10.4 mph - N/A   Overcast
1:54 AM 64.0 °F - 51.1 °F 63% 30.00 in 10.0 mi SSW 12.7 mph 21.9 mph N/A   Overcast
2:54 AM 63.0 °F - 51.1 °F 65% 29.99 in 10.0 mi SSW 16.1 mph 25.3 mph N/A   Overcast
3:54 AM 63.0 °F - 52.0 °F 67% 29.99 in 10.0 mi SSW 17.3 mph - N/A   Overcast
4:12 AM 62.6 °F - 51.8 °F 68% 30.00 in 10.0 mi SSW 15.0 mph - N/A   Overcast
4:54 AM 63.0 °F - 53.1 °F 70% 29.99 in 10.0 mi SSW 15.0 mph 24.2 mph N/A   Overcast
5:54 AM 63.0 °F - 54.0 °F 72% 29.99 in 10.0 mi SSW 15.0 mph 20.7 mph N/A   Overcast
6:54 AM 63.0 °F - 55.0 °F 75% 29.99 in 10.0 mi SSW 16.1 mph - N/A   Overcast
7:54 AM 63.0 °F - 55.0 °F 75% 30.00 in 10.0 mi SW 15.0 mph - 0.00 in Rain Light Rain
8:54 AM 62.1 °F - 55.9 °F 80% 30.01 in 10.0 mi WSW 11.5 mph - 0.00 in   Overcast
9:54 AM 57.9 °F - 57.0 °F 97% 30.04 in 3.0 mi West 8.1 mph - 0.02 in Rain Light Rain
9:57 AM 57.2 °F - 57.2 °F 100% 30.04 in 2.5 mi West 9.2 mph - 0.00 in Rain Light Rain
10:15 AM 57.2 °F - 57.2 °F 100% 30.05 in 2.5 mi West 10.4 mph - 0.01 in Rain Light Rain
10:27 AM 57.2 °F - 57.2 °F 100% 30.04 in 3.0 mi West 9.2 mph - 0.02 in Rain Light Rain
10:45 AM 57.2 °F - 57.2 °F 100% 30.05 in 2.0 mi West 9.2 mph - 0.02 in   Light Drizzle
10:50 AM 57.2 °F - 57.2 °F 100% 30.05 in 1.5 mi NW 11.5 mph - 0.02 in   Light Drizzle
10:54 AM 55.9 °F - 55.0 °F 97% 30.05 in 1.0 mi NW 9.2 mph - 0.02 in Rain Light Rain
11:14 AM 51.8 °F - 51.8 °F 100% 30.06 in 2.5 mi North 10.4 mph - 0.02 in Rain Light Rain
11:31 AM 51.8 °F - 50.0 °F 94% 30.06 in 4.0 mi North 15.0 mph - 0.02 in Rain Light Rain
11:44 AM 51.8 °F - 50.0 °F 94% 30.06 in 5.0 mi NNW 11.5 mph - 0.03 in Rain Light Rain
11:50 AM 50.0 °F - 48.2 °F 94% 30.06 in 6.0 mi North 10.4 mph - 0.03 in   Light Drizzle
11:54 AM 50.0 °F - 48.9 °F 96% 30.06 in 6.0 mi North 10.4 mph - 0.03 in   Light Drizzle
12:25 PM 48.2 °F - 48.2 °F 100% 30.07 in 2.0 mi NNW 12.7 mph - 0.04 in Rain Rain
12:46 PM 46.4 °F 41.9 °F 46.4 °F 100% 30.08 in 5.0 mi North 9.2 mph - 0.06 in Rain Light Rain
12:54 PM 46.9 °F - 45.0 °F 93% 30.08 in 6.0 mi North 10.4 mph - 0.06 in Rain Light Rain
1:09 PM 46.4 °F 41.1 °F 44.6 °F 93% 30.07 in 6.0 mi North 11.5 mph - 0.01 in Rain Light Rain
1:54 PM 46.0 °F 41.4 °F 41.0 °F 83% 30.09 in 10.0 mi North 9.2 mph - 0.01 in   Overcast
2:50 PM 46.4 °F 41.9 °F 42.8 °F 87% 30.08 in 10.0 mi North 9.2 mph - N/A   Overcast
2:54 PM 46.9 °F - 42.1 °F 83% 30.08 in 10.0 mi North 10.4 mph - N/A   Overcast
3:54 PM 48.9 °F - 42.1 °F 77% 30.10 in 10.0 mi North 9.2 mph - N/A   Mostly Cloudy
4:54 PM 48.9 °F - 42.1 °F 77% 30.14 in 10.0 mi NNW 8.1 mph - N/A   Overcast
5:54 PM 45.0 °F 42.6 °F 41.0 °F 86% 30.16 in 10.0 mi West 4.6 mph - N/A   Mostly Cloudy
6:54 PM 43.0 °F 39.5 °F 39.9 °F 89% 30.19 in 10.0 mi West 5.8 mph - N/A   Mostly Cloudy
7:54 PM 44.1 °F 40.8 °F 41.0 °F 89% 30.19 in 10.0 mi WSW 5.8 mph - N/A   Mostly Cloudy
8:54 PM 41.0 °F 37.1 °F 39.0 °F 93% 30.19 in 10.0 mi SW 5.8 mph - N/A   Mostly Cloudy
9:54 PM 39.9 °F 34.5 °F 39.0 °F 97% 30.22 in 10.0 mi WSW 8.1 mph - N/A   Scattered Clouds
10:54 PM 39.9 °F 35.1 °F 39.0 °F 97% 30.23 in 10.0 mi West 6.9 mph - N/A   Partly Cloudy
11:54 PM 39.0 °F 34.8 °F 37.9 °F 96% 30.22 in 10.0 mi West 5.8 mph - N/A   Clear